Stations météo

réclame
Mon MeteoGroup
Koksijde, Belgique (6400): Température de l'air & dewpoint: 20.05.2018 23:00:00 - 26.05.2018 23:00:00 (CEST)Koksijde, Belgique (6400): Vitesse du vent & gusts: 20.05.2018 23:00:00 - 26.05.2018 23:00:00 (CEST)Koksijde, Belgique (6400): Direction du vent: 20.05.2018 23:00:00 - 26.05.2018 23:00:00 (CEST)Koksijde, Belgique (6400): reduced air pressure: 20.05.2018 23:00:00 - 26.05.2018 23:00:00 (CEST)Koksijde, Belgique (6400): visibility: 20.05.2018 23:00:00 - 26.05.2018 23:00:00 (CEST)
Date & Time tt [°C] td [°C] ff [km/h] ff [knt] fx [km/h] fx [knt] dd ppp [hPa] vv [km]
26.05.2018 23:00:00 - - - - - - - - -
26.05.2018 22:00:00 - - - - - - - - -
26.05.2018 21:00:00 - - - - - - - - -
26.05.2018 20:00:00 - - - - - - - - -
26.05.2018 19:00:00 23,2 16,5 25 14 32 18 NE 1017,1 12
26.05.2018 18:00:00 23,0 17,2 22 12 29 16 NNE 1017,2 13
26.05.2018 17:00:00 24,1 17,7 18 10 - - N 1017,5 11
26.05.2018 16:00:00 25,4 18,3 14 8 29 16 NNE 1017,8 12
26.05.2018 15:00:00 25,3 18,8 18 10 25 14 N 1018,2 9
26.05.2018 14:00:00 26,4 14,3 14 8 - - NE 1018,7 20
26.05.2018 13:00:00 25,3 18,2 14 8 25 14 ENE 1018,7 13
26.05.2018 12:00:00 22,7 18,6 11 6 22 12 NE 1018,8 7
26.05.2018 11:00:00 19,7 17,4 14 8 - - NE 1019,1 5
26.05.2018 10:00:00 16,9 15,9 11 6 18 10 NE 1019,1 5
26.05.2018 09:00:00 14,5 14,4 7 4 14 8 NNE 1019,2 3,3
26.05.2018 08:00:00 13,5 13,5 11 6 - - NNE 1019,0 2,6
26.05.2018 07:00:00 13,1 13,1 7 4 14 8 N 1018,8 2,0
26.05.2018 06:00:00 12,5 12,5 4 2 18 10 N 1018,8 1,2
26.05.2018 05:00:00 12,6 12,6 7 4 - - N 1019,2 1,5
26.05.2018 04:00:00 12,3 12,3 11 6 14 8 N 1018,8 1,8
26.05.2018 03:00:00 12,3 12,3 7 4 14 8 N 1019,2 1,1
26.05.2018 02:00:00 12,5 12,5 7 4 - - N 1019,5 0,5
26.05.2018 01:00:00 12,6 12,5 7 4 11 6 NNE 1019,5 0,2
26.05.2018 00:00:00 12,5 12,5 7 4 18 10 NNE 1019,5 0,5
25.05.2018 23:00:00 12,8 12,8 11 6 - - NNE 1019,7 0,4
25.05.2018 22:00:00 13,1 13,1 11 6 22 12 NE 1019,5 0,6
25.05.2018 21:00:00 13,6 13,5 14 8 22 12 NNE 1019,0 2,4
25.05.2018 20:00:00 14,1 13,7 11 6 - - N 1018,7 2,8
25.05.2018 19:00:00 15,8 14,2 7 4 14 8 N 1018,6 4,5
25.05.2018 18:00:00 16,3 14,4 14 8 18 10 N 1018,7 4,3
25.05.2018 17:00:00 16,1 14,3 7 4 - - NNW 1019,2 4,5
25.05.2018 16:00:00 16,1 14,7 7 4 11 6 N 1019,2 3,2
25.05.2018 15:00:00 15,4 14,5 4 2 11 6 N 1019,2 2,5
25.05.2018 14:00:00 15,0 14,2 7 4 - - NNW 1019,0 2,5
25.05.2018 13:00:00 15,3 14,5 4 2 11 6 N 1018,7 2,5
25.05.2018 12:00:00 14,7 14,4 7 4 11 6 W 1018,7 2,5
25.05.2018 11:00:00 13,2 13,2 7 4 - - W 1018,6 1,1
25.05.2018 10:00:00 12,8 12,8 7 4 14 8 W 1018,3 0,2
25.05.2018 09:00:00 12,8 12,8 7 4 18 10 WSW 1018,0 0,1
25.05.2018 08:00:00 12,3 12,3 11 6 - - SW 1017,6 0,1
25.05.2018 07:00:00 12,1 12,1 7 4 11 6 WSW 1017,3 0,1
25.05.2018 06:00:00 12,1 12,1 7 4 14 8 SSW 1017,0 0,1
25.05.2018 05:00:00 12,8 12,8 11 6 - - SW 1016,7 0,2
25.05.2018 04:00:00 13,1 13,1 7 4 7 4 WSW 1016,3 1,3
25.05.2018 03:00:00 13,3 13,3 4 2 7 4 N 1016,6 1,4
25.05.2018 02:00:00 13,8 13,8 4 2 - - N 1016,6 1,5
25.05.2018 01:00:00 14,3 14,3 7 4 7 4 W 1017,0 1,7
25.05.2018 00:00:00 14,8 14,8 4 2 4 2 N 1016,7 2,3
24.05.2018 23:00:00 14,9 14,9 4 2 - - N 1016,7 2,3
24.05.2018 22:00:00 16,1 15,8 4 2 7 4 N 1016,6 4,3
24.05.2018 21:00:00 16,0 15,2 4 2 7 4 N 1016,6 9
24.05.2018 20:00:00 15,8 14,8 4 2 - - N 1016,5 9
24.05.2018 19:00:00 16,1 14,4 11 6 25 14 NNE 1016,3 9
24.05.2018 18:00:00 17,3 14,3 18 10 32 18 NNE 1016,6 12
24.05.2018 17:00:00 18,2 14,6 22 12 - - NNE 1016,2 13
24.05.2018 16:00:00 19,3 15,1 25 14 40 21 NNE 1017,0 20
24.05.2018 15:00:00 19,2 14,2 29 16 36 19 NNE 1017,3 14
24.05.2018 14:00:00 21,5 15,3 14 8 - - N 1017,7 14
24.05.2018 13:00:00 20,4 14,9 7 4 14 8 N 1018,2 17
24.05.2018 12:00:00 19,3 14,9 11 6 18 10 ENE 1018,8 17
24.05.2018 11:00:00 17,9 13,3 11 6 - - ENE 1019,1 15
24.05.2018 10:00:00 17,5 14,6 11 6 18 10 ENE 1019,2 15
24.05.2018 09:00:00 16,8 13,5 11 6 14 8 NE 1019,2 15
24.05.2018 08:00:00 16,7 14,2 7 4 - - ENE 1019,2 10
24.05.2018 07:00:00 15,1 14,9 8 4 7 4 NE 1019,2 5
24.05.2018 06:00:00 14,1 14,0 4 2 11 6 N 1019,3 2,3
24.05.2018 05:00:00 13,6 13,6 7 4 - - NNE 1019,6 2,1
24.05.2018 04:00:00 14,5 14,5 7 4 7 4 N 1019,8 2,3
24.05.2018 03:00:00 14,8 14,8 4 2 14 8 N 1020,0 2,4
24.05.2018 02:00:00 15,1 14,8 11 6 - - E 1020,6 5
24.05.2018 01:00:00 14,3 14,2 11 6 18 10 N 1020,5 4,4
24.05.2018 00:00:00 14,8 14,8 7 4 11 6 N 1020,2 2,5
23.05.2018 23:00:00 14,5 14,5 7 4 - - NNW 1020,6 1,8
23.05.2018 22:00:00 15,0 13,6 11 6 22 12 E 1020,7 8
23.05.2018 21:00:00 14,6 13,0 11 6 22 12 N 1020,1 14
23.05.2018 20:00:00 14,6 13,1 14 8 - - N 1019,8 12
23.05.2018 19:00:00 15,2 13,2 18 10 25 14 N 1020,1 15
23.05.2018 18:00:00 15,5 13,5 18 10 25 14 N 1020,2 18
23.05.2018 17:00:00 16,7 14,1 18 10 - - N 1020,2 10
23.05.2018 16:00:00 15,7 13,7 14 8 25 14 N 1020,7 8
23.05.2018 15:00:00 13,5 13,0 18 10 25 14 N 1021,2 7
23.05.2018 14:00:00 13,8 13,0 18 10 - - N 1021,2 7
23.05.2018 13:00:00 13,3 13,3 22 12 32 18 N 1021,2 5
23.05.2018 12:00:00 13,4 13,4 18 10 29 16 N 1021,2 5
23.05.2018 11:00:00 12,4 12,1 22 12 - - N 1021,2 6
23.05.2018 10:00:00 12,0 11,9 22 12 36 19 N 1020,8 6
23.05.2018 09:00:00 11,8 11,6 22 12 36 19 N 1020,3 6
23.05.2018 08:00:00 11,6 11,5 22 12 - - N 1020,1 7
23.05.2018 07:00:00 11,5 11,3 18 10 40 21 N 1019,5 8
23.05.2018 06:00:00 11,4 11,3 18 10 40 21 N 1019,2 6
23.05.2018 05:00:00 11,6 11,1 25 14 - - N 1018,7 12
23.05.2018 04:00:00 12,0 11,0 22 12 36 19 N 1018,5 14
23.05.2018 03:00:00 11,8 11,0 25 14 36 19 N 1018,1 13
23.05.2018 02:00:00 12,0 11,0 22 12 - - N 1018,0 12
23.05.2018 01:00:00 12,0 11,1 18 10 32 18 N 1018,0 12
23.05.2018 00:00:00 12,1 11,0 18 10 32 18 N 1017,7 13
22.05.2018 23:00:00 12,5 11,3 22 12 - - N 1017,2 15
22.05.2018 22:00:00 12,5 11,5 14 8 25 14 N 1017,0 15
22.05.2018 21:00:00 13,3 11,7 18 10 29 16 N 1016,5 20
22.05.2018 20:00:00 - - - - - - - - -
22.05.2018 19:00:00 14,5 12,1 22 12 32 18 N 1015,7 20
22.05.2018 18:00:00 14,7 11,9 22 12 32 18 N 1015,2 20
22.05.2018 17:00:00 15,3 12,6 25 14 - - N 1014,7 20
22.05.2018 16:00:00 15,5 12,4 18 10 29 16 NNW 1014,7 20
22.05.2018 15:00:00 16,6 12,2 18 10 25 14 NNW 1014,7 20
22.05.2018 14:00:00 17,8 12,2 14 8 - - NNW 1014,5 20
22.05.2018 13:00:00 16,2 12,2 22 12 29 16 NNW 1014,3 20
22.05.2018 12:00:00 17,2 12,6 11 6 22 12 NNW 1014,3 20
22.05.2018 11:00:00 17,1 12,7 11 6 - - N 1014,1 20
22.05.2018 10:00:00 17,1 12,5 11 6 18 10 N 1013,7 20
22.05.2018 09:00:00 16,4 12,4 11 6 14 8 NNW 1013,6 20
22.05.2018 08:00:00 15,8 13,4 7 4 - - N 1013,1 20
22.05.2018 07:00:00 13,6 12,9 7 4 14 8 N 1012,7 11
22.05.2018 06:00:00 12,6 12,2 7 4 14 8 N 1012,5 10
22.05.2018 05:00:00 11,9 11,2 7 4 - - NNW 1012,2 10
22.05.2018 04:00:00 12,6 11,8 7 4 11 6 N 1012,0 11
22.05.2018 03:00:00 14,2 12,3 7 4 18 10 N 1012,2 17
22.05.2018 02:00:00 13,7 12,1 4 2 - - N 1012,3 17
22.05.2018 01:00:00 13,1 12,4 11 6 11 6 NW 1012,6 10
22.05.2018 00:00:00 13,2 12,2 7 4 7 4 WNW 1012,5 9
21.05.2018 23:00:00 13,6 12,0 4 2 - - N 1012,7 12
21.05.2018 22:00:00 14,0 11,6 7 4 14 8 NNW 1012,6 15
21.05.2018 21:00:00 14,5 11,5 7 4 18 10 N 1012,7 19
21.05.2018 20:00:00 15,6 11,5 11 6 - - N 1012,6 17
21.05.2018 19:00:00 17,7 10,3 18 10 29 16 N 1012,7 19
21.05.2018 18:00:00 18,2 10,4 14 8 25 14 N 1013,0 19
21.05.2018 17:00:00 18,5 10,6 14 8 - - N 1013,6 18
21.05.2018 16:00:00 20,1 11,0 22 12 32 18 NNE 1014,2 18
21.05.2018 15:00:00 19,2 12,8 22 12 29 16 NNE 1014,2 20
21.05.2018 14:00:00 18,3 15,2 14 8 - - NNE 1014,3 16
21.05.2018 13:00:00 15,5 13,9 14 8 29 16 ENE 1015,2 3,7
21.05.2018 12:00:00 19,8 12,2 14 8 29 16 ENE 1015,2 17
21.05.2018 11:00:00 19,2 13,6 18 10 - - ENE 1015,7 20
21.05.2018 10:00:00 15,5 14,4 4 2 11 6 N 1016,0 5
21.05.2018 09:00:00 14,0 13,1 7 4 7 4 N 1016,2 5
21.05.2018 08:00:00 13,3 12,9 4 2 - - N 1016,7 4,4
21.05.2018 07:00:00 11,8 11,8 7 4 7 4 N 1017,0 3,0
21.05.2018 06:00:00 10,6 10,4 4 2 4 2 N 1017,2 3,6
21.05.2018 05:00:00 10,8 10,2 4 2 - - N 1017,7 3,4
21.05.2018 04:00:00 11,1 10,8 4 2 7 4 N 1018,1 3,1
21.05.2018 03:00:00 11,4 11,1 4 2 4 2 N 1018,7 2,9
21.05.2018 02:00:00 11,1 11,0 4 2 - - N 1018,8 3,6
21.05.2018 01:00:00 11,3 11,0 7 4 18 10 NNE 1019,2 3,5
21.05.2018 00:00:00 11,6 11,3 11 6 18 10 NNE 1019,7 4,9
20.05.2018 23:00:00 11,1 10,6 11 6 - - NNE 1020,5 4,4

tt = Température de l'air
td = dewpoint
ff = Vitesse du vent
fx = gusts
dd = Direction du vent
ppp = reduced air pressure
vv = visibility

stations d'obs. à proximité